Track NADEZHDA 7 now! 10-day predictions NADEZHDA 7 is classified as:
1 27534U 02046A 22143.57292522 .00000064 00000-0 52150-4 0 9996 2 27534 82.9353 348.4351 0037159 139.6326 273.5520 13.72753996984733